Location: Chippewa Lake
(41.0698°N, 81.9010°W)
Time: 21:20:51
(UTC+00:00)

Cosmos 1238 Rocket - Pass Details

Date: 09 May 2021
Orbit: 374 x 1021 km, 82.9° (Epoch: 16 June)

Event Time Altitude Azimuth Distance (km) Brightness Sun altitude
Rises 04:22:58 0° 354° (N) 3,722 8.2 -29.8°
Reaches altitude 10° 04:25:40 10° 356° (N) 2,720 7.2 -30.0°
Enters shadow 04:31:22 67° 38° (NE) 962 3.9 -30.3°
